Time,TemperatureF,DewpointF,PressureIn,WindDirection,WindDirectionDegrees,WindSpeedMPH,WindSpeedGustMPH,Humidity,HourlyPrecipIn,Conditions,Clouds,dailyrainin,SoftwareType,DateUTC
2013-02-06 00:00:00,52.9,47.6,30.02,SSW,208,1.0,4.0,82,0.00,,---,0.00,VWS V14.00,2013-02-06 08:00:00,
2013-02-06 00:02:00,53.0,48.0,30.02,ESE,123,0.0,4.0,84,0.00,,,0.00,weatherlink.com 1.10,2013-02-06 08:02:00,
2013-02-06 00:19:00,52.7,48.0,30.02,ESE,123,1.0,4.0,83,0.00,,,0.00,weatherlink.com 1.10,2013-02-06 08:19:00,
2013-02-06 00:30:00,52.6,47.6,30.02,ESE,121,0.0,3.0,83,0.00,,---,0.00,VWS V14.00,2013-02-06 08:30:00,
2013-02-06 00:32:00,52.7,47.7,30.02,SE,136,0.0,5.0,83,0.00,,---,0.00,VWS V14.00,2013-02-06 08:32:00,
2013-02-06 00:37:00,52.8,48.0,30.02,SE,135,1.0,2.0,84,0.00,,,0.00,weatherlink.com 1.10,2013-02-06 08:37:00,
2013-02-06 00:53:00,52.8,47.0,30.02,SE,142,1.0,3.0,82,0.00,,,0.00,weatherlink.com 1.10,2013-02-06 08:53:00,
2013-02-06 01:00:00,52.5,47.5,30.01,ESE,117,0.0,3.0,83,0.00,,---,0.00,VWS V14.00,2013-02-06 09:00:00,
2013-02-06 01:02:00,52.9,47.6,30.02,SSW,208,1.0,4.0,82,0.00,,---,0.00,VWS V14.00,2013-02-06 09:02:00,
2013-02-06 01:11:00,52.9,48.0,30.02,SSW,208,1.0,2.0,82,0.00,,,0.00,weatherlink.com 1.10,2013-02-06 09:11:00,
2013-02-06 01:29:00,52.7,48.0,30.02,SE,124,1.0,3.0,83,0.00,,,0.00,weatherlink.com 1.10,2013-02-06 09:29:00,
2013-02-06 01:30:00,52.5,47.5,30.01,ESE,111,0.0,3.0,83,0.00,,---,0.00,VWS V14.00,2013-02-06 09:30:00,
2013-02-06 01:32:00,52.6,47.6,30.02,ESE,121,0.0,3.0,83,0.00,,---,0.00,VWS V14.00,2013-02-06 09:32:00,
2013-02-06 01:45:00,52.3,48.0,30.02,SE,128,0.0,3.0,84,0.00,,,0.00,weatherlink.com 1.10,2013-02-06 09:45:00,
2013-02-06 02:00:00,52.1,47.1,30.00,SE,137,2.0,5.0,83,0.00,,---,0.00,VWS V14.00,2013-02-06 10:00:00,
2013-02-06 02:02:00,52.5,47.5,30.01,ESE,117,0.0,3.0,83,0.00,,---,0.00,VWS V14.00,2013-02-06 10:02:00,
2013-02-06 02:20:00,52.4,47.0,30.01,ESE,118,1.0,3.0,83,0.00,,,0.00,weatherlink.com 1.10,2013-02-06 10:20:00,
2013-02-06 02:30:00,52.3,47.0,30.00,ENE,60,0.0,3.0,82,0.00,,---,0.00,VWS V14.00,2013-02-06 10:30:00,
2013-02-06 02:32:00,52.5,47.5,30.01,ESE,111,0.0,3.0,83,0.00,,---,0.00,VWS V14.00,2013-02-06 10:32:00,
2013-02-06 02:54:00,52.1,47.0,30.00,ESE,122,0.0,5.0,83,0.00,,,0.00,weatherlink.com 1.10,2013-02-06 10:54:00,
2013-02-06 03:00:00,52.2,47.2,29.99,ENE,78,0.0,2.0,83,0.00,,---,0.00,VWS V14.00,2013-02-06 11:00:00,
2013-02-06 03:02:00,52.1,47.1,30.00,SE,137,2.0,5.0,83,0.00,,---,0.00,VWS V14.00,2013-02-06 11:02:00,
2013-02-06 03:11:00,52.2,47.0,30.00,ESE,104,0.0,4.0,82,0.00,,,0.00,weatherlink.com 1.10,2013-02-06 11:11:00,
2013-02-06 03:28:00,52.3,47.0,30.01,ENE,60,0.0,0.0,82,0.00,,,0.00,weatherlink.com 1.10,2013-02-06 11:28:00,
2013-02-06 03:30:00,52.0,47.6,29.99,NNE,13,0.0,3.0,85,0.00,,---,0.00,VWS V14.00,2013-02-06 11:30:00,
2013-02-06 03:45:00,52.4,47.0,30.00,ESE,103,0.0,1.0,83,0.00,,,0.00,weatherlink.com 1.10,2013-02-06 11:45:00,
2013-02-06 04:00:00,51.8,47.4,30.00,East,85,0.0,3.0,85,0.00,,---,0.00,VWS V14.00,2013-02-06 12:00:00,
2013-02-06 04:02:00,52.2,47.2,29.99,ENE,78,0.0,2.0,83,0.00,,---,0.00,VWS V14.00,2013-02-06 12:02:00,
2013-02-06 04:19:00,51.9,47.0,29.99,East,82,1.0,2.0,84,0.00,,,0.00,weatherlink.com 1.10,2013-02-06 12:19:00,
2013-02-06 04:30:00,51.8,47.4,30.00,ENE,77,0.0,2.0,85,0.00,,---,0.00,VWS V14.00,2013-02-06 12:30:00,
2013-02-06 04:32:00,52.0,47.6,29.99,NNE,13,0.0,3.0,85,0.00,,---,0.00,VWS V14.00,2013-02-06 12:32:00,
2013-02-06 04:36:00,52.0,48.0,29.99,ENE,66,1.0,3.0,85,0.00,,,0.00,weatherlink.com 1.10,2013-02-06 12:36:00,
2013-02-06 04:54:00,51.9,48.0,29.99,East,88,0.0,3.0,85,0.00,,,0.00,weatherlink.com 1.10,2013-02-06 12:54:00,
2013-02-06 05:00:00,51.9,47.5,30.01,East,93,0.0,2.0,85,0.00,,---,0.00,VWS V14.00,2013-02-06 13:00:00,
2013-02-06 05:02:00,51.8,47.4,30.00,East,85,0.0,3.0,85,0.00,,---,0.00,VWS V14.00,2013-02-06 13:02:00,
2013-02-06 05:10:00,51.9,48.0,30.00,ESE,103,0.0,2.0,85,0.00,,,0.00,weatherlink.com 1.10,2013-02-06 13:10:00,
2013-02-06 05:28:00,51.9,47.0,29.99,ENE,77,0.0,1.0,84,0.00,,,0.00,weatherlink.com 1.10,2013-02-06 13:28:00,
2013-02-06 05:30:00,52.0,47.0,30.01,ESE,117,1.0,2.0,83,0.00,,---,0.00,VWS V14.00,2013-02-06 13:30:00,
2013-02-06 05:45:00,51.8,48.0,30.00,ESE,107,0.0,1.0,85,0.00,,,0.00,weatherlink.com 1.10,2013-02-06 13:45:00,
2013-02-06 06:00:00,51.8,47.4,30.02,ESE,121,0.0,2.0,85,0.00,,---,0.00,VWS V14.00,2013-02-06 14:00:00,
2013-02-06 06:02:00,51.9,48.0,30.01,East,93,0.0,0.0,85,0.00,,,0.00,weatherlink.com 1.10,2013-02-06 14:02:00,
2013-02-06 06:19:00,51.9,47.0,30.02,East,93,0.0,0.0,84,0.00,,,0.00,weatherlink.com 1.10,2013-02-06 14:19:00,
2013-02-06 06:30:00,52.4,47.1,30.03,ESE,115,0.0,2.0,82,0.00,,---,0.00,VWS V14.00,2013-02-06 14:30:00,
2013-02-06 06:32:00,52.0,47.0,30.01,ESE,117,1.0,2.0,83,0.00,,---,0.00,VWS V14.00,2013-02-06 14:32:00,
2013-02-06 06:53:00,51.7,47.0,30.02,ESE,121,0.0,1.0,84,0.00,,,0.00,weatherlink.com 1.10,2013-02-06 14:53:00,
2013-02-06 07:00:00,53.7,47.3,30.03,East,100,0.0,2.0,79,0.00,,---,0.00,VWS V14.00,2013-02-06 15:00:00,
2013-02-06 07:02:00,51.8,47.4,30.02,ESE,121,0.0,2.0,85,0.00,,---,0.00,VWS V14.00,2013-02-06 15:02:00,
2013-02-06 07:11:00,52.0,47.0,30.02,ESE,112,0.0,2.0,84,0.00,,,0.00,weatherlink.com 1.10,2013-02-06 15:11:00,
2013-02-06 07:27:00,52.3,47.0,30.02,ESE,113,0.0,1.0,83,0.00,,,0.00,weatherlink.com 1.10,2013-02-06 15:27:00,
2013-02-06 07:30:00,55.1,47.7,30.05,SE,142,0.0,2.0,76,0.00,,---,0.00,VWS V14.00,2013-02-06 15:30:00,
2013-02-06 07:32:00,52.4,47.1,30.03,ESE,115,0.0,2.0,82,0.00,,---,0.00,VWS V14.00,2013-02-06 15:32:00,
2013-02-06 07:45:00,53.0,47.0,30.03,ESE,114,0.0,1.0,81,0.00,,,0.00,weatherlink.com 1.10,2013-02-06 15:45:00,
2013-02-06 08:00:00,54.9,47.8,30.06,SSE,150,1.0,4.0,77,0.00,,---,0.00,VWS V14.00,2013-02-06 16:00:00,
2013-02-06 08:02:00,53.7,47.0,30.03,East,100,0.0,2.0,79,0.00,,,0.00,weatherlink.com 1.10,2013-02-06 16:02:00,
2013-02-06 08:18:00,55.3,48.0,30.04,ESE,115,0.0,2.0,76,0.00,,,0.00,weatherlink.com 1.10,2013-02-06 16:18:00,
2013-02-06 08:30:00,57.2,48.3,30.06,SSE,149,3.0,6.0,72,0.00,,---,0.00,VWS V14.00,2013-02-06 16:30:00,
2013-02-06 08:32:00,55.1,47.7,30.05,SE,142,0.0,2.0,76,0.00,,---,0.00,VWS V14.00,2013-02-06 16:32:00,
2013-02-06 09:00:00,56.4,48.2,30.07,SE,138,1.0,6.0,74,0.00,,---,0.00,VWS V14.00,2013-02-06 17:00:00,
2013-02-06 09:02:00,54.9,47.8,30.06,SSE,150,1.0,4.0,77,0.00,,---,0.00,VWS V14.00,2013-02-06 17:02:00,
2013-02-06 09:10:00,55.1,48.0,30.06,SE,144,3.0,5.0,77,0.00,,,0.00,weatherlink.com 1.10,2013-02-06 17:10:00,
2013-02-06 09:28:00,57.1,49.0,30.05,SSE,164,2.0,6.0,73,0.00,,,0.00,weatherlink.com 1.10,2013-02-06 17:28:00,
2013-02-06 09:30:00,57.6,48.7,30.07,SSW,207,1.0,7.0,72,0.00,,---,0.00,VWS V14.00,2013-02-06 17:30:00,
2013-02-06 09:32:00,57.2,48.3,30.06,SSE,149,3.0,6.0,72,0.00,,---,0.00,VWS V14.00,2013-02-06 17:32:00,
2013-02-06 09:44:00,56.8,48.0,30.06,SSE,151,5.0,6.0,72,0.00,,,0.00,weatherlink.com 1.10,2013-02-06 17:44:00,
2013-02-06 10:00:00,58.2,49.2,30.06,South,185,2.0,9.0,72,0.00,,---,0.00,VWS V14.00,2013-02-06 18:00:00,
2013-02-06 10:02:00,56.4,48.0,30.07,SE,138,0.0,6.0,74,0.00,,,0.00,weatherlink.com 1.10,2013-02-06 18:02:00,
2013-02-06 10:20:00,56.9,48.0,30.07,SE,142,3.0,6.0,72,0.00,,,0.00,weatherlink.com 1.10,2013-02-06 18:20:00,
2013-02-06 10:30:00,57.6,49.4,30.06,SSW,210,4.0,12.0,74,0.00,,---,0.00,VWS V14.00,2013-02-06 18:30:00,
2013-02-06 10:32:00,57.6,48.7,30.07,SSW,207,1.0,7.0,72,0.00,,---,0.00,VWS V14.00,2013-02-06 18:32:00,
2013-02-06 10:36:00,57.8,48.0,30.07,South,179,3.0,7.0,71,0.00,,,0.00,weatherlink.com 1.10,2013-02-06 18:36:00,
2013-02-06 10:54:00,57.6,49.0,30.07,SSW,213,4.0,7.0,72,0.00,,,0.00,weatherlink.com 1.10,2013-02-06 18:54:00,
2013-02-06 11:00:00,58.0,49.4,30.06,SW,231,6.0,12.0,73,0.00,,---,0.00,VWS V14.00,2013-02-06 19:00:00,
2013-02-06 11:02:00,58.2,49.2,30.06,South,185,2.0,9.0,72,0.00,,---,0.00,VWS V14.00,2013-02-06 19:02:00,
2013-02-06 11:11:00,57.7,48.0,30.06,South,191,6.0,11.0,70,0.00,,,0.00,weatherlink.com 1.10,2013-02-06 19:11:00,
2013-02-06 11:28:00,57.5,49.0,30.07,South,178,7.0,11.0,74,0.00,,,0.00,weatherlink.com 1.10,2013-02-06 19:28:00,
2013-02-06 11:30:00,57.1,48.9,30.05,West,275,7.0,12.0,74,0.00,,---,0.00,VWS V14.00,2013-02-06 19:30:00,
2013-02-06 11:46:00,58.0,50.0,30.06,South,184,7.0,10.0,74,0.00,,,0.00,weatherlink.com 1.10,2013-02-06 19:46:00,
2013-02-06 12:00:00,57.3,49.1,30.03,WSW,252,7.0,10.0,74,0.00,,---,0.00,VWS V14.00,2013-02-06 20:00:00,
2013-02-06 12:02:00,58.0,49.4,30.06,SW,231,6.0,12.0,73,0.00,,---,0.00,VWS V14.00,2013-02-06 20:02:00,
2013-02-06 12:20:00,57.3,49.0,30.06,West,268,6.0,10.0,74,0.00,,,0.00,weatherlink.com 1.10,2013-02-06 20:20:00,
2013-02-06 12:30:00,56.6,48.8,30.03,WNW,284,5.0,11.0,75,0.00,,---,0.00,VWS V14.00,2013-02-06 20:30:00,
2013-02-06 12:32:00,57.1,48.9,30.05,West,275,7.0,12.0,74,0.00,,---,0.00,VWS V14.00,2013-02-06 20:32:00,
2013-02-06 12:38:00,56.5,49.0,30.05,WNW,289,5.0,10.0,75,0.00,,,0.00,weatherlink.com 1.10,2013-02-06 20:38:00,
2013-02-06 12:54:00,56.8,49.0,30.04,WNW,284,5.0,10.0,75,0.00,,,0.00,weatherlink.com 1.10,2013-02-06 20:54:00,
2013-02-06 13:00:00,56.9,48.7,30.03,NW,304,4.0,11.0,74,0.00,,---,0.00,VWS V14.00,2013-02-06 21:00:00,
2013-02-06 13:02:00,57.3,49.1,30.03,WSW,252,7.0,10.0,74,0.00,,---,0.00,VWS V14.00,2013-02-06 21:02:00,
2013-02-06 13:12:00,57.4,49.0,30.03,West,261,5.0,10.0,73,0.00,,,0.00,weatherlink.com 1.10,2013-02-06 21:12:00,
2013-02-06 13:30:00,56.7,48.0,30.03,WNW,284,5.0,11.0,73,0.00,,,0.00,weatherlink.com 1.10,2013-02-06 21:30:00,
2013-02-06 13:32:00,56.6,48.8,30.03,WNW,284,5.0,11.0,75,0.00,,---,0.00,VWS V14.00,2013-02-06 21:32:00,
2013-02-06 13:47:00,56.9,49.0,30.03,WSW,249,8.0,11.0,74,0.00,,,0.00,weatherlink.com 1.10,2013-02-06 21:47:00,
2013-02-06 14:00:00,56.2,49.1,30.03,WNW,302,8.0,13.0,77,0.00,,---,0.00,VWS V14.00,2013-02-06 22:00:00,
2013-02-06 14:02:00,56.9,48.7,30.03,NW,304,4.0,11.0,74,0.00,,---,0.00,VWS V14.00,2013-02-06 22:02:00,
2013-02-06 14:04:00,57.3,49.0,30.03,West,278,5.0,11.0,75,0.00,,,0.00,weatherlink.com 1.10,2013-02-06 22:04:00,
2013-02-06 14:22:00,57.2,49.0,30.03,NW,313,7.0,11.0,75,0.00,,,0.00,weatherlink.com 1.10,2013-02-06 22:22:00,
2013-02-06 14:30:00,56.6,49.1,30.03,West,267,9.0,12.0,76,0.00,,---,0.00,VWS V14.00,2013-02-06 22:30:00,
2013-02-06 14:32:00,56.6,49.1,30.03,WNW,298,7.0,12.0,76,0.00,,---,0.00,VWS V14.00,2013-02-06 22:32:00,
2013-02-06 14:40:00,56.8,49.0,30.03,West,278,6.0,12.0,76,0.00,,,0.00,weatherlink.com 1.10,2013-02-06 22:40:00,
2013-02-06 14:56:00,56.8,49.0,30.03,NW,324,10.0,13.0,76,0.00,,,0.00,weatherlink.com 1.10,2013-02-06 22:56:00,
2013-02-06 15:00:00,57.1,48.9,30.03,WNW,292,0.0,11.0,74,0.00,,---,0.00,VWS V14.00,2013-02-06 23:00:00,
2013-02-06 15:02:00,56.2,49.1,30.03,WNW,302,8.0,13.0,77,0.00,,---,0.00,VWS V14.00,2013-02-06 23:02:00,
2013-02-06 15:14:00,56.5,49.0,30.03,WNW,286,5.0,12.0,77,0.00,,,0.00,weatherlink.com 1.10,2013-02-06 23:14:00,
2013-02-06 15:30:00,56.0,48.9,30.03,WNW,293,5.0,8.0,77,0.00,,---,0.00,VWS V14.00,2013-02-06 23:30:00,
2013-02-06 15:31:00,56.6,49.0,30.03,WSW,258,7.0,11.0,76,0.00,,,0.00,weatherlink.com 1.10,2013-02-06 23:31:00,
2013-02-06 15:32:00,56.6,49.1,30.03,West,267,9.0,12.0,76,0.00,,---,0.00,VWS V14.00,2013-02-06 23:32:00,
2013-02-06 15:48:00,56.2,49.0,30.03,West,274,3.0,10.0,77,0.00,,,0.00,weatherlink.com 1.10,2013-02-06 23:48:00,
2013-02-06 16:00:00,55.5,48.1,30.04,WSW,248,5.0,8.0,76,0.00,,---,0.00,VWS V14.00,2013-02-07 00:00:00,
2013-02-06 16:02:00,57.1,48.9,30.03,WNW,292,0.0,11.0,74,0.00,,---,0.00,VWS V14.00,2013-02-07 00:02:00,
2013-02-06 16:23:00,56.4,49.0,30.03,NW,313,5.0,9.0,76,0.00,,,0.00,weatherlink.com 1.10,2013-02-07 00:23:00,
2013-02-06 16:30:00,54.7,48.0,30.04,West,277,3.0,7.0,78,0.00,,---,0.00,VWS V14.00,2013-02-07 00:30:00,
2013-02-06 16:32:00,56.0,48.9,30.03,WNW,293,5.0,8.0,77,0.00,,---,0.00,VWS V14.00,2013-02-07 00:32:00,
2013-02-06 16:39:00,55.9,48.0,30.03,WSW,254,7.0,8.0,75,0.00,,,0.00,weatherlink.com 1.10,2013-02-07 00:39:00,
2013-02-06 16:57:00,55.6,48.0,30.03,West,271,5.0,7.0,76,0.00,,,0.00,weatherlink.com 1.10,2013-02-07 00:57:00,
2013-02-06 17:00:00,54.1,48.4,30.05,West,269,4.0,5.0,81,0.00,,---,0.00,VWS V14.00,2013-02-07 01:00:00,
2013-02-06 17:02:00,55.5,48.1,30.04,WSW,248,5.0,8.0,76,0.00,,---,0.00,VWS V14.00,2013-02-07 01:02:00,
2013-02-06 17:15:00,55.4,48.0,30.04,West,281,2.0,7.0,77,0.00,,,0.00,weatherlink.com 1.10,2013-02-07 01:15:00,
2013-02-06 17:30:00,53.7,48.3,30.05,NW,306,2.0,5.0,82,0.00,,---,0.00,VWS V14.00,2013-02-07 01:30:00,
2013-02-06 17:31:00,54.8,48.0,30.04,West,278,2.0,5.0,78,0.00,,,0.00,weatherlink.com 1.10,2013-02-07 01:31:00,
2013-02-06 17:49:00,54.3,48.0,30.04,WNW,286,3.0,4.0,80,0.00,,,0.00,weatherlink.com 1.10,2013-02-07 01:49:00,
2013-02-06 18:00:00,53.3,48.3,30.06,NW,311,2.0,5.0,83,0.00,,---,0.00,VWS V14.00,2013-02-07 02:00:00,
2013-02-06 18:02:00,54.1,48.4,30.05,West,269,4.0,5.0,81,0.00,,---,0.00,VWS V14.00,2013-02-07 02:02:00,
2013-02-06 18:05:00,54.0,48.0,30.05,West,279,3.0,5.0,81,0.00,,,0.00,weatherlink.com 1.10,2013-02-07 02:05:00,
2013-02-06 18:23:00,53.9,49.0,30.05,WNW,284,3.0,5.0,82,0.00,,,0.00,weatherlink.com 1.10,2013-02-07 02:23:00,
2013-02-06 18:30:00,53.1,48.7,30.06,NNW,332,2.0,5.0,85,0.00,,---,0.00,VWS V14.00,2013-02-07 02:30:00,
2013-02-06 18:32:00,53.7,48.3,30.05,NW,306,2.0,5.0,82,0.00,,---,0.00,VWS V14.00,2013-02-07 02:32:00,
2013-02-06 18:41:00,53.6,49.0,30.05,WNW,303,4.0,5.0,83,0.00,,,0.00,weatherlink.com 1.10,2013-02-07 02:41:00,
2013-02-06 18:58:00,53.4,48.0,30.05,NW,312,3.0,3.0,83,0.00,,,0.00,weatherlink.com 1.10,2013-02-07 02:58:00,
2013-02-06 19:00:00,52.4,48.3,30.07,NNW,336,0.0,4.0,86,0.00,,---,0.00,VWS V14.00,2013-02-07 03:00:00,
2013-02-06 19:02:00,53.3,48.3,30.06,NW,311,2.0,5.0,83,0.00,,---,0.00,VWS V14.00,2013-02-07 03:02:00,
2013-02-06 19:15:00,53.2,49.0,30.05,NW,305,1.0,4.0,84,0.00,,,0.00,weatherlink.com 1.10,2013-02-07 03:15:00,
2013-02-06 19:30:00,51.6,47.9,30.08,North,355,0.0,1.0,87,0.00,,---,0.00,VWS V14.00,2013-02-07 03:30:00,
2013-02-06 19:32:00,53.1,48.7,30.06,NNW,332,2.0,5.0,85,0.00,,---,0.00,VWS V14.00,2013-02-07 03:32:00,
2013-02-06 19:50:00,52.9,49.0,30.06,NNW,336,0.0,2.0,85,0.00,,,0.00,weatherlink.com 1.10,2013-02-07 03:50:00,
2013-02-06 20:00:00,51.2,47.2,30.08,ENE,67,2.0,3.0,86,0.00,,---,0.00,VWS V14.00,2013-02-07 04:00:00,
2013-02-06 20:02:00,52.4,48.3,30.07,NNW,336,0.0,4.0,86,0.00,,---,0.00,VWS V14.00,2013-02-07 04:02:00,
2013-02-06 20:23:00,51.5,48.0,30.08,ENE,59,0.0,0.0,86,0.00,,,0.00,weatherlink.com 1.10,2013-02-07 04:23:00,
2013-02-06 20:30:00,49.5,46.4,30.08,ESE,111,1.0,3.0,89,0.00,,---,0.00,VWS V14.00,2013-02-07 04:30:00,
2013-02-06 20:32:00,51.6,47.9,30.08,North,355,0.0,1.0,87,0.00,,---,0.00,VWS V14.00,2013-02-07 04:32:00,
2013-02-06 20:40:00,51.8,48.0,30.08,North,360,1.0,3.0,88,0.00,,,0.00,weatherlink.com 1.10,2013-02-07 04:40:00,
2013-02-06 20:58:00,51.5,48.0,30.08,North,351,0.0,0.0,88,0.00,,,0.00,weatherlink.com 1.10,2013-02-07 04:58:00,
2013-02-06 21:00:00,48.7,45.9,30.09,East,98,0.0,2.0,90,0.00,,---,0.00,VWS V14.00,2013-02-07 05:00:00,
2013-02-06 21:02:00,51.2,47.2,30.08,ENE,67,2.0,3.0,86,0.00,,---,0.00,VWS V14.00,2013-02-07 05:02:00,
2013-02-06 21:15:00,50.2,47.0,30.08,ENE,61,0.0,2.0,88,0.00,,,0.00,weatherlink.com 1.10,2013-02-07 05:15:00,
2013-02-06 21:30:00,48.4,45.6,30.09,ENE,74,1.0,2.0,90,0.00,,---,0.00,VWS V14.00,2013-02-07 05:30:00,
2013-02-06 21:32:00,49.6,47.0,30.09,ESE,114,0.0,3.0,89,0.00,,,0.00,weatherlink.com 1.10,2013-02-07 05:32:00,
2013-02-06 21:49:00,49.0,46.0,30.09,ESE,106,0.0,1.0,89,0.00,,,0.00,weatherlink.com 1.10,2013-02-07 05:49:00,
2013-02-06 22:00:00,48.5,46.0,30.09,ENE,77,0.0,2.0,91,0.00,,---,0.00,VWS V14.00,2013-02-07 06:00:00,
2013-02-06 22:02:00,48.7,45.9,30.09,East,98,0.0,2.0,90,0.00,,---,0.00,VWS V14.00,2013-02-07 06:02:00,
2013-02-06 22:07:00,48.7,46.0,30.09,East,98,0.0,0.0,90,0.00,,,0.00,weatherlink.com 1.10,2013-02-07 06:07:00,
2013-02-06 22:23:00,48.6,46.0,30.09,ENE,67,1.0,2.0,90,0.00,,,0.00,weatherlink.com 1.10,2013-02-07 06:23:00,
2013-02-06 22:30:00,47.0,44.8,30.09,ESE,103,1.0,2.0,92,0.00,,---,0.00,VWS V14.00,2013-02-07 06:30:00,
2013-02-06 22:32:00,48.4,45.6,30.09,ENE,74,1.0,2.0,90,0.00,,---,0.00,VWS V14.00,2013-02-07 06:32:00,
2013-02-06 22:41:00,48.3,46.0,30.09,ENE,77,0.0,3.0,91,0.00,,,0.00,weatherlink.com 1.10,2013-02-07 06:41:00,
2013-02-06 23:00:00,45.9,43.7,30.09,ESE,103,0.0,3.0,92,0.00,,---,0.00,VWS V14.00,2013-02-07 07:00:00,
2013-02-06 23:02:00,48.5,46.0,30.09,ENE,77,0.0,2.0,91,0.00,,---,0.00,VWS V14.00,2013-02-07 07:02:00,
2013-02-06 23:14:00,48.2,46.0,30.09,ENE,77,0.0,1.0,91,0.00,,,0.00,weatherlink.com 1.10,2013-02-07 07:14:00,
2013-02-06 23:30:00,46.8,44.9,30.09,East,92,2.0,5.0,93,0.00,,---,0.00,VWS V14.00,2013-02-07 07:30:00,
2013-02-06 23:32:00,47.0,45.0,30.09,ESE,103,1.0,2.0,91,0.00,,,0.00,weatherlink.com 1.10,2013-02-07 07:32:00,
2013-02-06 23:48:00,47.0,45.0,30.09,ESE,102,2.0,2.0,92,0.00,,,0.00,weatherlink.com 1.10,2013-02-07 07:48:00,